Погода в Тулуне

Погода в Тулуне : погода сейчас, прогноз погоды и архив. Всё, что Вы хотите узнать о погоде в Тулуне!

Хотите узнать прогноз погоды в Тулуне? Тогда Вам сюда: Погода в Тулуне

Поиск расширенной информации на нашем сайте:

Другие новости

Новости СМИ2

Главная страница сайта

Новости сайта

03.07.2017

Напоминаем, что на нашем специализированном сайте Метеоцентр.Азия вы можете получить высокодетализированные автоматические прогнозы погоды по пунктам России, СНГ и мира в авиационном формате (включающие направление и скорость ветра, видимость, явления погоды, количество и форму облачности, нижнюю и верхнюю границу облачности).


Погода в Тулуне - сегодня

Время (UTC), дата Ветер
(°,м/с) 
Видим.   Явления Облачность Т
(°С)
Тd
(°С)
f(%) Тe
(°С)
Pmin
(гПа)
dP
(гПа)
Po
(мм)
O2
(г/м3)
Тmin Tmax R s Состояние
почвы
18 21.02.18 тихо ()   н/о  слаб. снег  10/0 средняя 
[As op]
-12 -13.2 91 -12  1023.2  -0.7  717  303           
21 21.02.18 тихо ()   н/о  слаб. снег  10/0 средняя 
[As op]
-14.9 -16.3 89 -15  1023.5  -0.4  717  307           
00 22.02.18 тихо ()   н/о  слаб. снег  10/0 средняя, верхняя 
[Ac trans|Cs]
-16 -17.6 87 -16  1023.9  0.2  717  308  -16.5    40  неравномерный
сухой снег
100% 
03 22.02.18 300 (СЗ) 20000 м  слаб. снег  10/0 средняя, верхняя 
[Ac trans|Cs]
-12.7 -14.9 84 -13  1023.7  0.6  717  304           
06 22.02.18 320 (СЗ) 20000 м  {ливн. осадки, снег}  3/3 600 м 
[Sc diur, vesp]
-11 -16.6 63 -11  1023.7  0.4  718  303           
09 22.02.18 060 (СВ) 20000 м    3/3 600 м 
[Sc diur, vesp]
-12.4 -18.3 61 -14  1024.4  0.3  718  304           
12 22.02.18 100 (В) н/о    1/0 верхняя 
[Ci sp]
-14.5 -18.4 72 -17  1025.4  0.4  718  307    -10.7  0.0     
15 22.02.18 140 (ЮВ) н/о    ясно 
-19.3 -20.6 89 -22  1026.6  -0.1  718  313           
18 22.02.18 140 (ЮВ) н/о    ясно 
-18.5 -20.5 84 -23  1025.3  -1  717  312           
21 22.02.18 150 (ЮВ) н/о    3/0 верхняя 
[Ci sp]
-19.5 -22 81 -20  1024.6  -0.9  717  313           
00 23.02.18 160 (Ю) н/о    10/6 600 м кучево-дожд., средняя 
[Cb calv|Ac As]
-18.2 -20.4 83 -21  1024.2  -0.1  717  311  -21.8      40  неравномерный
сухой снег
100% 
03 23.02.18 180 (Ю) 20000 м  слаб. ливневой снег  9/6 600 м кучево-дожд., верхняя 
[Cb calv|Ci sp]
-17.5 -20.2 79 -21  1024.9  0.9  717  310           
06 23.02.18 170 (Ю) 20000 м  {ливн. осадки}  4/0 верхняя 
[Ci sp]
-11.1 -16.8 63 -13  1023.3  0.1  717  303           
09 23.02.18 080 (В) 20000 м    6/0 средняя, верхняя 
[Ac trans|Ci sp]
-8.1 -14.7 59 -10  1022.6  0.1  717  299           
12 23.02.18 тихо ()   н/о    10/0 средняя, верхняя 
[Ac trans|Cs]
-12.7 -15.8 78 -13  1025.4  1.5  719  305    -7.8  0.2     
15 23.02.18 170 (Ю) н/о  слаб. ливневой снег  9/6 600 м кучево-дожд., средняя 
[Cb calv|Ac trans]
-10.7 -13.4 80 -11  1025.2  0.3  719  303           
18 23.02.18 тихо ()   н/о  {ливн. осадки}  9/3 600 м кучево-дожд., средняя, верхняя 
[Cb calv|Ac trans|Ci sp]
-14.1 -15.3 91 -14  1025.9  -0.2  719  307           
21 23.02.18 тихо ()   н/о    9/0 средняя, верхняя 
[Ac trans|Ci sp]
-14.5 -16 88 -15  1025.7  -0.3  718  307           
00 24.02.18 тихо ()   н/о    3/0 верхняя 
[Ci sp]
-19.7 -21.7 84 -20  1026.9  -0.2  718  313  -19.7    0.0  39  неравномерный
сухой снег
100% 
03 24.02.18 тихо ()   20000 м    10/0 верхняя 
[Cs]
-14.7 -16.2 88 -15  1024.9  -0.6  718  307  -19.8         
06 24.02.18 130 (ЮВ) 20000 м    9/0 верхняя 
[Ci sp]
-8.3 -13.4 67 -10  1021.6  -1.5  717  299           
09 24.02.18 140 (ЮВ) 20000 м    10/0 верхняя 
[Cs]
-7.4 -13.8 60 -7  1020.8  -0.6  716  298           
12 24.02.18 170 (Ю) н/о    10/0 средняя, верхняя 
[Ac trans|Cs]
-10.5 -14.5 72 -12  1022.4  0.8  717  302    -6.7       
15 24.02.18 050 (СВ) н/о    9/3 600 м кучево-дожд., средняя, верхняя 
[Cb calv|Ac trans|Ci sp]
-11.8 -14.7 79 -12  1022.3  -0.4  716  303           
18 24.02.18 040 (СВ) н/о  слаб. ливневой снег  10/6 600 м кучево-дожд., средняя 
[Cb calv|Ac As]
-13.3 -15.5 83 -13  1021.6  -1  716  304           
Время (UTC), дата Ветер
(°,м/с) 
Видим.   Явления Облачность Т
(°С)
Тd
(°С)
f(%) Тe
(°С)
Pmin
(гПа)
dP
(гПа)
Po
(мм)
O2
(г/м3)
Тmin Tmax R s Состояние
почвы

Для получения пояснительной информации подведите курсор к названию столбца.

ПОГОДА в Тулуне - архив

Всё, что Вы хотите узнать о погоде в Тулуне - удобно и подробно!

Выберите нужную дату (начиная с 1 января 2015* года) и нажмите кнопку "Найти".
Будут отображены архивные сводки погоды по пункту Тулун, начиная с указанной даты.


Отображать данные в формате CSV (для использования в таблицах Excel)


Внимание! Наш архив погоды предназначен исключительно для личного некоммерческого использования в познавательных целях. Если Вам необходимы официальные справки о состоянии погоды (для производственных, юридических, коммерческих и т.п. целей), обращайтесь в органы Росгидромета.

*Примечание: данная дата относится к архиву по метеостанциям СССР (Россия, СНГ, Балтия).
Архив по метеостанциям Зарубежной Европы и Азии (кроме Китая) хранится 10 дней, по другим регионам земного шара (Китай, Африка, Америка, Австралия, Океания) - 1 день.

Тулун - район местоположения метеостанции


Название, широта, долгота, высота метеостанции:
Тулун 54.6°ш. 100.6°д. 522 м над ур. моря [Российская Федерация]

Дополнительная информация

В oтличие oт бoльшинства пoгoдных сайтoв мы публикуем пoдрoбную метеoинфoрмацию в детальнoм прoфессиoнальнoм фoрмате.

Характеристики температуры и влажнoсти вoздуха измеряются на высoте 2 м в тени вдали oт зданий и деревьев.
Скoрoсть ветра измеряется на высoте 10 м (на урoвне рoста челoвека скoрoсть ветра ниже в 1.5-2 раза). Если метеoстанция нахoдится в гoрoде или в лесу, тo скoрoсть ветра занижена на 2-4 м/с пo сравнению с oткрытым местoм. Скoрoсть ветра над акватoриями крупных рек и oзёр, а также на вершинах хoлмoв на 2-5 м/с выше, чем в oбычных услoвиях.
Атмoсфернoе давление в разных тoчках местнoсти мoжет значительнo oтличаться oт давления на метеoстанции, в зависимoсти oт услoвий рельефа (при пoдъёме на 10 м давление пoнижается примернo на 1 мм рт.ст.).